Regional Weather Roundup
Issued by NWS Cleveland, OH

Home | Current Version | Previous Version | Graphics & Text | Print | Product List | Glossary On
Versions: 1 2 3 4 5 6 7 8 9 10 11 12 13 14 15 16 17 18 19 20 21 22 23 24 25 26 27 28 29 30 31 32 33 34 35 36 37 38 39 40 41 42 43 44 45 46 47 48 49 50
511
ASUS41 KCLE 051412
RWRCLE
OHIO REGIONAL WEATHER ROUNDUP
NATIONAL WEATHER SERVICE WILMINGTON, OH
900 AM EST MON DEC 05 2016

NOTE: "FAIR" INDICATES FEW OR NO CLOUDS BELOW 12,000 FEET WITH NO
SIGNIFICANT WEATHER AND/OR OBSTRUCTIONS TO VISIBILITY.

OHZ001>008-015>018-024>027-034-035-043-044-051500-
   NORTHWEST OHIO

CITY           SKY/WX    TMP DP  RH WIND       PRES   REMARKS
DEFIANCE       CLOUDY    35  28  75 W5        30.07R
FINDLAY        CLOUDY    35  29  78 SW6       30.07R
TOLEDO EXPRESS CLOUDY    35  33  92 SW6       30.05R
TOLEDO EXEC    CLOUDY    36  33  89 SW8       30.06R
LIMA           CLOUDY    33  31  92 SW7       30.07R WCI  27
$$

OHZ009>014-019>023-028>033-038-089-051500-
   NORTHEAST OHIO

CITY           SKY/WX    TMP DP  RH WIND       PRES   REMARKS
CLE-HOPKINS    CLOUDY    38  31  76 SW12      30.08R
CLE-LAKEFRONT  CLOUDY    38  32  79 SW14      30.05R
CUY CO. ARPT   CLOUDY    39  36  87 W14       30.05R
LORAIN-ELYRIA  CLOUDY    36  30  79 W9        30.07R
ASHTABULA      CLOUDY    39  31  72 W10       30.02R
AKRON-CANTON   CLOUDY    36  29  75 SW7       30.06R
WOOSTER        CLOUDY    35  30  82 SW6       30.07R
MANSFIELD      CLOUDY    34  31  88 SW5       30.06R WCI  30
YOUNGSTOWN     CLOUDY    35  31  85 SW10      30.03R WCI  27
$$

OHZ042-051>053-060>062-070>072-077>081-051500-
  SOUTHWEST OHIO

CITY           SKY/WX    TMP DP  RH WIND       PRES   REMARKS
CINC-COVINGTON CLOUDY    37  31  78 N5        30.09R
CINC-LUNKEN    CLOUDY    39  32  76 NW5       30.12R
HAMILTON       CLOUDY    38  29  70 N5        30.12R
DAYTON         CLOUDY    35  30  82 SW3       30.10R
WRIGHT-PAT AFB CLOUDY    36  32  86 S1        30.10R
DAYTON GENERAL CLOUDY    36  29  75 W6        30.09R
WILMINGTON     CLOUDY    36  29  75 CALM      30.09R
$$

OHZ036-037-039>041-045>050-054>059-063>069-073>076-082>088-051500-
  CENTRAL AND SOUTHEAST OHIO

CITY           SKY/WX    TMP DP  RH WIND       PRES   REMARKS
COLUMBUS       CLOUDY    36  32  85 NW3       30.10R
OSU AIRPORT    CLOUDY    36  30  79 W6        30.09R
BOLTON FIELD   CLOUDY    36  30  80 CALM      30.10R
RICKENBACK AFB CLOUDY    35  31  84 CALM      30.11R
NEWARK         CLOUDY    37  30  75 CALM      30.09S
MARION         CLOUDY    35  30  82 SW7       30.09R WCI  29
LANCASTER      CLOUDY    36  31  82 W5        30.11R
ZANESVILLE     CLOUDY    37  31  78 NW5       30.10R
NEW PHILLY     CLOUDY    36  31  82 W3        30.09R
$$




USA.gov is the U.S. government's official web portal to all federal, state and local government web resources and services.